Location: Monfort
(47.1967°N, 0.2115°W)
Time: 12:17:36
(UTC+00:00)

Meteor 2-14 Rocket - Pass Details

Date: 24 October 2020
Orbit: 937 x 957 km, 82.5° (Epoch: 28 November)

Event Time Altitude Azimuth Distance (km) Brightness Sun altitude
Rises 17:39:31 0° 351° (N) 3,647 7.5 -7.9°
Reaches altitude 10° 17:42:03 10° 354° (N) 2,695 6.8 -8.4°
Maximum altitude 17:48:13 74° 79° (E) 994 4.4 -9.4°
Drops below altitude 10° 17:54:19 10° 165° (SSE) 2,665 6.7 -10.4°
Sets 17:56:48 0° 167° (SSE) 3,602 7.4 -10.8°
